This is the latest recevied weather packets stored in our database for station/object N7WSS. If no packets are shown the sender has not sent any weather packets the latest 10 day(s).
| Time | Temp. | Humidity | Pressure | Rain* | Wind** | Luminosity | Snow |
|---|---|---|---|---|---|---|---|
| 1777585642 | 30° C | 21% | 1005.2 hPa | 0 mm | - | - | - |
| 1777584427 | 30° C | 21% | 1005.5 hPa | 0 mm | - | - | - |
| 1777584123 | 30° C | 20% | 1005.7 hPa | 0 mm | - | - | - |
| 1777583822 | 30° C | 20% | 1005.8 hPa | 0 mm | - | - | - |
| 1777582907 | 29.44° C | 20% | 1006 hPa | 0 mm | - | - | - |
| 1777580792 | 28.89° C | 19% | 1006.9 hPa | 0 mm | - | - | - |
| 1777580183 | 28.89° C | 18% | 1007.2 hPa | 0 mm | - | - | - |
| 1777579580 | 28.89° C | 18% | 1007.3 hPa | 0 mm | - | - | - |
| 1777577755 | 29.44° C | 18% | 1007.8 hPa | 0 mm | - | - | - |
| 1777577452 | 28.89° C | 18% | 1007.9 hPa | 0 mm | - | - | - |
| 1777577149 | 28.89° C | 19% | 1007.8 hPa | 0 mm | - | - | - |
| 1777576845 | 29.44° C | 19% | 1007.8 hPa | 0 mm | - | - | - |
| 1777576544 | 27.78° C | 20% | 1008.1 hPa | 0 mm | - | - | - |
| 1777576241 | 28.33° C | 18% | 1008 hPa | 0 mm | - | - | - |
| 1777575330 | 28.89° C | 16% | 1008.2 hPa | 0 mm | - | - | - |
| 1777575026 | 28.89° C | 17% | 1008.3 hPa | 0 mm | - | - | - |
| 1777574722 | 27.78° C | 17% | 1008.4 hPa | 0 mm | - | - | - |
| 1777574420 | 27.78° C | 16% | 1008.7 hPa | 0 mm | - | - | - |
| 1777573506 | 27.22° C | 16% | 1009 hPa | 0 mm | - | - | - |
| 1777572899 | 27.22° C | 16% | 1009.1 hPa | 0 mm | - | - | - |
| 1777569864 | 26.11° C | 17% | 1010 hPa | 0 mm | - | - | - |
| 1777568953 | 25° C | 19% | 1010.2 hPa | 0 mm | - | - | - |
| 1777568347 | 24.44° C | 18% | 1010.1 hPa | 0 mm | - | - | - |
| 1777567740 | 25° C | 19% | 1010.1 hPa | 0 mm | - | - | - |
| 1777566227 | 23.89° C | 19% | 1010.2 hPa | 0 mm | - | - | - |
* Rain latest hour (hover to see other rain measurements)
** Current wind speed in m/s (hover to see current wind gust speed)